Location: Puketoi
(40.5833°S, 176.0167°E)
Time: 00:51:44
(UTC+00:00)

CZ-2C R/B - Pass Details

Date: 08 February 2023
Orbit: 666 x 783 km, 98.3° (Epoch: 31 March)

Event Time Altitude Azimuth Distance (km) Brightness Sun altitude
Exits shadow 14:43:12 63° 79° (E) 762 2.5 -26.5°
Maximum altitude 14:43:32 66° 106° (ESE) 749 2.5 -26.4°
Drops below altitude 10° 14:48:13 10° 187° (S) 2,169 5.4 -25.9°
Sets 14:50:31 0° 190° (S) 3,109 6.2 -25.6°
